Weather History for KABI - June, 2014

Change the Weather History Date:

Monday, June 9, 2014

  Actual Average Record
Temperature  
Mean Temperature 72 °F 78 °F  
Max Temperature 82 °F 90 °F 103 °F (1939)
Min Temperature 61 °F 67 °F 56 °F (1890)
Degree Days  
Heating Degree Days 0 0  
Month to date heating degree days 0 0  
Since 1 June heating degree days 0 0  
Since 1 July heating degree days 2821 2558  
Cooling Degree Days 7 13  
Month to date cooling degree days 145 114  
Year to date cooling degree days 659 511  
Since 1 June cooling degree days 145 114  
Growing Degree Days 22 (Base 50)    
Moisture  
Dew Point 59 °F    
Average Humidity 64    
Maximum Humidity 93    
Minimum Humidity 35    
Precipitation  
Precipitation 0.41 in 0.14 in 1.90 in (1993)
Month to date precipitation 1.37 1.27  
Year to date precipitation 5.36 10.21  
Sea Level Pressure  
Sea Level Pressure 29.83 in    
Wind  
Wind Speed 13 mph (NNW)    
Max Wind Speed 44 mph    
Max Gust Speed 50 mph    
Visibility 9 miles    
Events Rain , Thunderstorm    
T = Trace of Precipitation, MM = Missing Value Source: NWS Daily Summary

Daily Weather History Graph

Daily Weather History Graph

Search for Another Location

Airport or City:

Trip Planner

Search our weather history database for the weather conditions in past years. The results will help you decide how hot, cold, wet, or windy it might be!

Date:

Astronomy

Jun. 09, 2014 Rise Set
Actual Time 6:31 AM CDT 8:45 PM CDT
Civil Twilight 6:02 AM CDT 9:13 PM CDT
Nautical Twilight 5:28 AM CDT 9:48 PM CDT
Astronomical Twilight 4:50 AM CDT 10:25 PM CDT
Moon 5:18 PM CDT (6/9) 3:47 AM CDT (6/9)
Length of Visible Light 15h 10m
Length of Day
14h 13m
Waxing Gibbous, 85% of the Moon is Illuminated
Jun 9
Waxing Gibbous
Jun 12
Full
Jun 19
Last Quarter
Jun 27
New
Jul 5
First Quarter

Hourly Weather History & Observations

Time (CDT) Temp. Heat Index Dew Point Humidity Pressure Visibility Wind Dir Wind Speed Gust Speed Precip Events Conditions
12:52 AM 70.0 °F - 64.9 °F 84% 29.77 in 10.0 mi SSW 3.5 mph - 0.00 in   Clear
1:52 AM 70.0 °F - 66.0 °F 87% 29.70 in 10.0 mi SSE 12.7 mph - N/A   Clear
2:52 AM 72.0 °F - 68.0 °F 87% 29.69 in 10.0 mi SSE 12.7 mph - N/A   Clear
3:52 AM 72.0 °F - 69.1 °F 91% 29.71 in 10.0 mi North 5.8 mph - N/A   Clear
4:15 AM 73.0 °F - 69.1 °F 87% 29.81 in 10.0 mi North 8.1 mph - N/A   Mostly Cloudy
4:44 AM 72.0 °F - 69.1 °F 91% 29.85 in 10.0 mi North 28.8 mph 46.0 mph N/A   Overcast
4:52 AM 66.0 °F - 61.0 °F 84% 29.78 in 10.0 mi North 34.5 mph 46.0 mph 0.00 in Rain Light Rain
5:04 AM 63.0 °F - 61.0 °F 93% 29.86 in 2.5 mi North 28.8 mph 48.3 mph 0.02 in Rain Heavy Rain
5:06 AM 62.1 °F - 60.1 °F 93% 29.85 in 2.0 mi North 27.6 mph 44.9 mph 0.06 in Rain , Thunderstorm Heavy Thunderstorms and Rain
5:10 AM 62.1 °F - 60.1 °F 93% 29.85 in 1.8 mi North 29.9 mph 40.3 mph 0.12 in Rain , Thunderstorm Heavy Thunderstorms and Rain
5:15 AM 62.1 °F - 60.1 °F 93% 29.87 in 3.0 mi North 24.2 mph 40.3 mph 0.14 in Rain , Thunderstorm Thunderstorms and Rain
5:26 AM 62.1 °F - 60.1 °F 93% 29.92 in 5.0 mi NNW 18.4 mph 29.9 mph 0.16 in Rain , Thunderstorm Thunderstorms and Rain
5:34 AM 61.0 °F - 60.1 °F 97% 29.90 in 2.5 mi North 21.9 mph 27.6 mph 0.26 in Rain , Thunderstorm Heavy Thunderstorms and Rain
5:42 AM 61.0 °F - 60.1 °F 97% 29.90 in 3.0 mi North 17.3 mph - 0.35 in Rain , Thunderstorm Heavy Thunderstorms and Rain
5:52 AM 61.0 °F - 59.0 °F 93% 29.85 in 6.0 mi North 17.3 mph - 0.40 in Rain , Thunderstorm Thunderstorms and Rain
6:00 AM 61.0 °F - 59.0 °F 93% 29.90 in 10.0 mi North 11.5 mph 21.9 mph 0.00 in Rain , Thunderstorm Thunderstorms and Rain
6:14 AM 62.1 °F - 60.1 °F 93% 29.93 in 10.0 mi North 12.7 mph - N/A Rain Light Rain
6:52 AM 61.0 °F - 59.0 °F 93% 29.84 in 10.0 mi NNE 5.8 mph - N/A   Partly Cloudy
7:52 AM 63.0 °F - 60.1 °F 90% 29.83 in 10.0 mi SE 5.8 mph - N/A   Mostly Cloudy
8:52 AM 66.0 °F - 59.0 °F 78% 29.79 in 10.0 mi South 5.8 mph - N/A   Clear
10:52 AM 70.0 °F - 57.9 °F 65% 29.84 in 10.0 mi NW 16.1 mph - N/A   Overcast
11:52 AM 71.1 °F - 57.9 °F 63% 29.87 in 10.0 mi WNW 15.0 mph - N/A   Overcast
12:05 PM 71.1 °F - 59.0 °F 66% 29.92 in 10.0 mi NW 15.0 mph - N/A   Overcast
12:20 PM 72.0 °F - 59.0 °F 64% 29.92 in 10.0 mi NW 16.1 mph 23.0 mph N/A   Overcast
12:31 PM 73.0 °F - 59.0 °F 61% 29.92 in 10.0 mi NNW 13.8 mph - N/A   Overcast
1:52 PM 73.9 °F - 57.9 °F 57% 29.85 in 10.0 mi NNW 12.7 mph - N/A   Mostly Cloudy
2:52 PM 78.1 °F - 57.0 °F 48% 29.82 in 10.0 mi NNW 10.4 mph 16.1 mph N/A   Partly Cloudy
3:52 PM 79.0 °F - 55.0 °F 44% 29.80 in 10.0 mi NNW 13.8 mph 19.6 mph N/A   Clear
4:52 PM 81.0 °F 80.8 °F 55.9 °F 42% 29.79 in 10.0 mi WNW 9.2 mph - N/A   Clear
5:52 PM 81.0 °F 80.4 °F 53.1 °F 38% 29.79 in 10.0 mi WNW 12.7 mph - N/A   Clear
6:52 PM 81.0 °F - 51.1 °F 35% 29.78 in 10.0 mi WNW 16.1 mph 21.9 mph N/A   Partly Cloudy
7:52 PM 79.0 °F - 48.0 °F 34% 29.81 in 10.0 mi NW 15.0 mph - N/A   Clear
8:52 PM 75.0 °F - 48.9 °F 40% 29.82 in 10.0 mi WNW 8.1 mph - N/A   Clear
9:52 PM 72.0 °F - 50.0 °F 46% 29.83 in 10.0 mi West 5.8 mph - N/A   Clear
10:52 PM 70.0 °F - 51.1 °F 51% 29.86 in 10.0 mi North 11.5 mph - N/A   Clear
11:52 PM 66.0 °F - 53.1 °F 63% 29.87 in 10.0 mi North 9.2 mph - N/A   Clear